Find Starlink 34813

NORAD ID: 66195 Int'l Des: 2025-243 Owner: SPXS Country: US Constellation: starlink operational
LEOCIRCULAR

現在のビュー

3D地球を読み込み中...

About Starlink 34813

Starlink 34813 (NORAD 66195) is a starlink constellation satellite (v2 mini) launched Oct 26, 2025 by SPXS of US. It operates in LEO, CIRCULAR orbit with a mass of 575.00 kg.

次回通過

Passes for default location (London). Set your location on the main map for personalized predictions.

高度履歴

Loading altitude history...

軌道要素

1 66195U 25243U 26263.96719274 .00023109 00000-0 69345-3 0 9992
2 66195 53.1584 55.2262 0000692 89.4377 270.6705 15.34377910 50598
Epoch: Sep 20, 2026 • Age: 16 hours

現在のステータス

高度 469.8 km
遠地点 / 近地点 N/A
速度 7.63 km/s
衛星直下点 -23.87°S, 171.75°E
打ち上げ日 Oct 26, 2025
運用期間 0.9 years
タイプ internet

技術仕様

分類 Payload
質量 575.00 kg
乾燥質量 530.00 kg
長さ 0.30 m
スパン 29.00 m
形状 ? Box + pan
製造者 SPXS
バスタイプ Starlink V2MO
フェーズステータス In Orbit
所有者/国 SPXS/US

Most Searched